Lancaster, PA

5:02 AM EDT on August 23, 2017 (GMT -0400)
Willow Acres | | Change Station

Elev 120 ft 40.03 °N, 76.20 °W | Updated 38 seconds ago

Rain
Rain
71.4 °F
Feels Like 71.4 °F
N
0.0
Wind Variable Wind from SW

Today
High -- | Low -- °F
--% Chance of Precip.
Yesterday
High -- | Low -- °F
Precip. -- in
Pressure 29.80 in
Visibility 10.0 miles
Clouds Mostly Cloudy 7000 ft
Overcast 8500 ft
Dew Point 70 °F
Humidity 96%
Rainfall 0.02 in
Snow Depth Not available.
6:24 AM 7:49 PM
Waxing Crescent, 3% visible
METAR KLNS 230853Z AUTO 27006KT 10SM BKN070 OVC085 23/22 A2981 RMK AO2 SLP089 60001 T02280222 55001
Pressure 29.80 in
Visibility 10.0 miles
Clouds Mostly Cloudy 7000 ft
Overcast 8500 ft
Dew Point 70 °F
Humidity 96%
Rainfall 0.02 in
Snow Depth Not available.
6:24 AM 7:49 PM
Waxing Crescent, 3% visible
METAR KLNS 230853Z AUTO 27006KT 10SM BKN070 OVC085 23/22 A2981 RMK AO2 SLP089 60001 T02280222 55001

Get Severe Weather Alerts

Thanks for signing up!

Be on the lookout for a verification email in your inbox.

You'll start receiving the daily forecast at 6 AM.

×

10-Day Weather Forecast

Almanac

Astronomy

Aug. 23, 2017 Rise Set
Actual Time
Civil Twilight
Nautical Twilight
Astronomical Twilight
Moon
Length of Visible Light
Length of Day
Tomorrow will be .
, % of the Moon is Illuminated

Today's Extremes

State Highs State Lows

Community

WunderPhotos

Category 6

Welcome to Category 6. This is the collective home for Weather Underground's featured writeups by Dr. Jeff Masters (right), Bob Henson (left), Chris Burt, and other regular contributors.

Nearby

Air Quality

  Air Quality AQ Index Pollutant
Not available.

Snow Depth

Station Depth Elevation

Earthquake Activity

City Distance Mag. Time & Date
Minimum magnitude displayed is 2.5.

Coastal Water Temperatures

Place Temperature

Stations

Nearby Weather Stations

Station Location Temp. Windchill Dew Point Humidity Wind Precip. Elev Updated Type
                   

Watches & Warnings

There are currently no watches in effect.